Location: *
(50.2903°S, 172.5375°W)
Time: 13:00:16
(UTC+00:00)

N. Korean satellite - Visible Passes

Search period start: 08 March 2021 00:00
Search period end: 18 March 2021 00:00
Orbit: 451 x 502 km, 97.2° (Epoch: 07 March)

Date Brightness Start Highest point End Pass type
(mag) Time Alt. Az. Time Alt. Az. Time Alt. Az.
08 Mar 10.0 14:38:10 10° E 14:40:11 14° ESE 14:42:12 10° SSE visible
08 Mar 6.6 16:09:17 10° N 16:13:00 66° WNW 16:16:46 10° SSW visible
09 Mar 7.2 15:42:33 10° NNE 15:46:15 62° ESE 15:49:58 10° S visible
10 Mar 8.6 15:16:13 10° NE 15:19:34 32° ESE 15:22:56 10° S visible
11 Mar 9.6 14:50:23 10° ENE 14:52:59 18° ESE 14:55:36 10° SSE visible
11 Mar 6.9 16:22:22 10° N 16:25:59 46° W 16:29:37 10° SSW visible
12 Mar 10.2 14:25:44 10° ESE 14:26:29 10° ESE 14:27:13 10° SE visible
12 Mar 6.7 15:55:25 10° NNE 15:59:09 86° ESE 16:02:54 10° SSW visible
13 Mar 7.9 15:28:51 10° NE 15:32:24 43° ESE 15:35:58 10° S visible
14 Mar 9.1 15:02:45 10° ENE 15:05:45 24° ESE 15:08:46 10° SSE visible
14 Mar 7.3 16:35:31 10° NNW 16:38:55 33° W 16:42:19 10° SSW visible
15 Mar 10.0 14:37:17 10° E 14:39:11 14° ESE 14:41:05 10° SSE visible
15 Mar 6.6 16:08:19 10° N 16:12:01 67° WNW 16:15:43 10° SSW visible
16 Mar 10.2 06:38:06 10° SW 06:39:03 11° WSW 06:39:59 10° WSW visible
16 Mar 7.2 15:41:33 10° NNE 15:45:13 60° ESE 15:48:52 10° S visible
17 Mar 8.6 15:15:12 10° NE 15:18:29 31° ESE 15:21:47 10° S visible
17 Mar 7.7 16:48:44 10° NNW 16:51:49 24° W 16:54:53 10° SW visible
